Date String (YYYY-MM-DD hh:mm:ss) UTC,Instrument flags,Ambient pressure (hPa),Sample flow (lpm),Bypass flow (lpm),Sample temperature (°C),Ambient temperature (°C),ASC tube jacket temperature (°C),LED temperature (°C),Box temperature (°C),Sample RH (%),Mass concentration (μg/m³),Mass concentration (μg/m³)
DateTimeUTC,F1_M11,P_M11,Q1_M11,Q2_M11,T1_M11,T2_M11,T3_M11,T4_M11,T5_M11,U1_M11,X2_M11,X0_M11
2021-08-15 09:00:00,,0830.3,5.00,0.00,29.5,28.3,00.0,38.6,31.4,25.4,0011.66,0019.65
2021-08-15 09:01:00,,0830.3,5.01,0.00,29.5,28.4,00.0,38.6,31.4,25.2,0011.72,0020.48
2021-08-15 09:02:00,,0830.3,5.00,0.00,29.6,28.5,00.0,38.7,31.4,25.1,0011.78,0021.37
2021-08-15 09:03:00,,0830.3,5.00,0.00,29.6,28.6,00.0,38.7,31.4,25.1,0011.77,0021.56
2021-08-15 09:04:00,,0830.3,5.00,0.00,29.6,28.7,00.0,38.7,31.5,25.1,0011.77,0021.51
2021-08-15 09:05:00,,0830.2,5.00,0.00,29.7,28.7,00.0,38.7,31.5,25.2,0011.74,0021.57
2021-08-15 09:06:00,,0830.2,5.01,0.00,29.7,28.8,00.0,38.7,31.6,25.1,0011.75,0021.51
2021-08-15 09:07:00,,0830.2,4.99,0.00,29.7,28.8,00.0,38.7,31.6,25.1,0011.74,0022.64
2021-08-15 09:08:00,,0830.2,5.01,0.00,29.7,28.9,00.0,38.8,31.6,25.2,0011.87,0024.98
2021-08-15 09:09:00,,0830.2,5.00,0.00,29.8,28.9,00.0,38.8,31.6,25.3,0011.91,0025.66
2021-08-15 09:10:00,,0830.1,5.00,0.00,29.7,27.6,00.0,38.8,31.3,25.3,0011.95,0026.11
2021-08-15 09:11:00,,0830.1,5.00,0.00,29.6,26.3,00.0,38.7,30.9,25.5,0011.99,0026.13
2021-08-15 09:12:00,,0830.1,4.99,0.00,29.5,26.4,00.0,38.7,31.0,25.8,0011.96,0025.42
2021-08-15 09:13:00,,0830.1,5.00,0.00,29.4,26.8,00.0,38.7,31.0,26.1,0011.95,0024.59
2021-08-15 09:14:00,,0830.2,5.00,0.00,29.4,27.1,00.0,38.6,31.1,26.1,0011.94,0023.76
2021-08-15 09:15:00,,0830.2,4.98,0.00,29.4,27.5,00.0,38.6,31.1,26.0,0011.94,0024.19
2021-08-15 09:16:00,,0830.2,5.01,0.00,29.4,27.7,00.0,38.6,31.2,26.0,0012.05,0024.79
2021-08-15 09:17:00,,0830.3,5.01,0.00,29.4,27.9,00.0,38.6,31.2,26.3,0012.06,0025.99
2021-08-15 09:18:00,,0830.2,4.99,0.00,29.5,28.1,00.0,38.6,31.3,26.4,0012.06,0026.01
2021-08-15 09:19:00,,0830.2,4.99,0.00,29.5,28.2,00.0,38.6,31.3,26.5,0011.99,0023.75
2021-08-15 09:20:00,,0830.3,4.99,0.00,29.5,28.4,00.0,38.6,31.4,26.5,0012.03,0024.47
2021-08-15 09:21:00,,0830.3,5.01,0.00,29.5,28.5,00.0,38.6,31.4,26.4,0012.12,0025.33
2021-08-15 09:22:00,,0830.3,4.98,0.00,29.6,28.6,00.0,38.6,31.4,26.4,0012.10,0025.39
2021-08-15 09:23:00,,0830.3,4.99,0.00,29.6,28.6,00.0,38.7,31.5,26.4,0012.12,0026.20
2021-08-15 09:24:00,,0830.4,5.02,0.00,29.6,28.7,00.0,38.7,31.5,26.3,0012.16,0026.81
2021-08-15 09:25:00,,0830.5,4.99,0.00,29.7,28.8,00.0,38.7,31.5,26.2,0012.23,0027.85
2021-08-15 09:26:00,,0830.5,5.00,0.00,29.7,28.9,00.0,38.7,31.6,25.8,0012.36,0028.84
2021-08-15 09:27:00,,0830.5,5.00,0.00,29.7,28.9,00.0,38.7,31.6,25.6,0012.32,0029.55
2021-08-15 09:28:00,,0830.5,5.00,0.00,29.8,29.0,00.0,38.8,31.7,25.5,0012.32,0029.06
2021-08-15 09:29:00,,0830.5,5.00,0.00,29.8,29.0,00.0,38.8,31.7,25.5,0012.29,0028.40
2021-08-15 09:30:00,,0830.5,4.99,0.00,29.8,28.9,00.0,38.8,31.7,25.5,0012.32,0029.29
2021-08-15 09:31:00,,0830.4,5.00,0.00,29.8,27.3,00.0,38.8,31.2,25.0,0012.30,0027.67
2021-08-15 09:32:00,,0830.5,5.00,0.00,29.6,26.3,00.0,38.7,31.0,24.7,0012.20,0026.38
2021-08-15 09:33:00,,0830.4,5.01,0.00,29.6,26.5,00.0,38.7,31.0,24.9,0012.24,0026.34
2021-08-15 09:34:00,,0830.4,4.99,0.00,29.5,26.9,00.0,38.7,31.1,25.1,0012.21,0026.21
2021-08-15 09:35:00,,0830.6,4.99,0.00,29.5,27.2,00.0,38.7,31.1,25.1,0012.18,0026.17
2021-08-15 09:36:00,,0830.6,5.01,0.00,29.5,27.5,00.0,38.6,31.2,25.1,0012.15,0026.18
2021-08-15 09:37:00,,0830.6,5.01,0.00,29.5,27.8,00.0,38.6,31.2,25.3,0012.08,0027.20
2021-08-15 09:38:00,,0830.6,4.99,0.00,29.5,28.0,00.0,38.6,31.3,25.4,0012.12,0026.95
2021-08-15 09:39:00,,0830.6,5.00,0.00,29.6,28.2,00.0,38.6,31.3,25.5,0012.11,0028.67
2021-08-15 09:40:00,,0830.6,5.00,0.00,29.6,28.3,00.0,38.6,31.3,25.5,0012.15,0030.07
2021-08-15 09:41:00,,0830.6,5.01,0.00,29.6,28.5,00.0,38.7,31.4,25.5,0012.19,0029.84
2021-08-15 09:42:00,,0830.6,5.00,0.00,29.6,28.6,00.0,38.7,31.4,25.5,0012.22,0030.48
2021-08-15 09:43:00,,0830.6,5.00,0.00,29.7,28.7,00.0,38.7,31.5,25.5,0012.34,0031.98
2021-08-15 09:44:00,,0830.6,5.01,0.00,29.7,28.7,00.0,38.7,31.5,25.4,0012.42,0034.16
2021-08-15 09:45:00,,0830.6,5.00,0.00,29.7,28.8,00.0,38.7,31.6,25.3,0012.53,0034.87
2021-08-15 09:46:00,,0830.6,4.99,0.00,29.8,28.9,00.0,38.7,31.6,25.3,0012.56,0034.71
2021-08-15 09:47:00,,0830.7,5.01,0.00,29.8,28.9,00.0,38.8,31.7,25.2,0012.54,0034.78
2021-08-15 09:48:00,,0830.8,5.01,0.00,29.8,29.0,00.0,38.8,31.7,25.1,0012.53,0033.52
2021-08-15 09:49:00,,0830.8,4.98,0.00,29.9,29.0,00.0,38.8,31.7,25.1,0012.54,0033.21
2021-08-15 09:50:00,,0830.7,5.01,0.00,29.9,29.0,00.0,38.8,31.7,25.1,0012.57,0032.88
2021-08-15 09:51:00,,0830.8,5.01,0.00,29.9,27.8,00.0,38.8,31.4,25.1,0012.53,0031.10
2021-08-15 09:52:00,,0830.8,4.98,0.00,29.7,25.9,00.0,38.8,30.8,25.3,0012.43,0030.28
2021-08-15 09:53:00,,0830.8,5.01,0.00,29.5,25.4,00.0,38.7,30.7,25.6,0012.42,0030.19
2021-08-15 09:54:00,,0830.8,5.00,0.00,29.4,25.7,00.0,38.7,30.8,25.9,0012.33,0029.18
2021-08-15 09:55:00,,0830.9,5.01,0.00,29.3,26.2,00.0,38.6,30.8,25.9,0012.24,0027.83
2021-08-15 09:56:00,,0830.9,5.00,0.00,29.3,26.7,00.0,38.6,30.9,25.9,0012.16,0026.70
2021-08-15 09:57:00,,0830.9,5.00,0.00,29.3,27.1,00.0,38.6,31.0,25.8,0012.18,0026.85
2021-08-15 09:58:00,,0830.9,4.99,0.00,29.3,27.4,00.0,38.5,31.0,25.7,0012.20,0025.84
2021-08-15 09:59:00,,0830.9,5.01,0.00,29.3,27.6,00.0,38.5,31.1,25.5,0012.22,0024.90
